Погода в Форстере

Австралия     32°11′36″S   152°30′54″E
темп.,
°C
ветер,
м/с
пор.,
м/с
влажн.,
%
обл.,
%
осадки,
мм/ч
давл.,
гПа
погр.,
м
18 мая, вт
вт1801:00+14юз2466100 0.0 1026554
04:00+12з337480 0.1 1026150
07:00+13зюз237393 0.0 1028190
10:00+15зюз226545 0.0 1029374
13:00+18юв22580 0.0 10261077
16:00+17юв23660 0.0 1026456
19:00+15в12690 0.0 1028565
22:00+14сз22797 0.0 1028180
19 мая, ср
ср1901:00+12сз23862 0.0 1028112
04:00+11зсз33883 0.0 1027119
07:00+11зсз23840 0.0 1029124
10:00+16ссз22600 0.0 1029341
13:00+18св33590 0.0 1026729
16:00+18св35720 0.0 1026399
19:00+17ссв46800 0.0 1027542
22:00+15ссз358810 0.2 1027163
20 мая, чт
чт2001:00+13сз338912 0.0 1026125
04:00+12сз33889 0.0 1026122
07:00+12з22865 0.0 1027117
10:00+17сз116453 0.0 1027327
13:00+18в2257100 0.0 1025688
16:00+17вюв236653 0.0 1025233
19:00+16вюв017464 0.0 1026266
22:00+14з228395 0.0 1027125
21 мая, пт
пт2101:00+13зюз33825 0.0 1027116
04:00+12зюз35795 0.0 1027145
07:00+12зюз467821 0.0 1028177
10:00+18ююз46610 0.0 1028700
13:00+20ююв566175 0.2 10261360
16:00+17ююз588213 3.4 1026650
19:00+17ююв6108338 4.2 1028679
22:00+17ю5979100 6.6 1028797
22 мая, сб
сб2201:00+17ю477596 0.1 1027855
04:00+16ю4679100 0.9 1026626
07:00+17ю367173 0.3 1027871
10:00+18ю356498 0.3 10281019
13:00+19ю44542 0.0 10261427
16:00+18ююв45603 0.1 1026868
19:00+16ююв357111 0.0 1027717
22:00+16ююв247115 0.0 1027753